User: anonymous   Login
Location: Cimarron National Grasslands
(37.1250°N, 101.7500°W)
Time: 16:29:48
(UTC-05:00)
Language:

Ariane Rocket - Orbit

View from above orbital plane
View from above orbital plane
View from above satellite
View from above satellite

Ground track
Ground track

The orbit data is extracted from the following two-line orbital elements,

1 23561U 95021B   17233.12439076  .00000025  00000-0  23723-4 0  9990
2 23561  98.7952 235.8199 0008083  70.3797 338.2768 14.37825742170589
Epoch (UTC): 21 August 2017 02:59:07
Eccentricity: 0.0008083
inclination: 98.7952°
perigee height: 760 km
apogee height: 771 km
right ascension of ascending node: 235.8199°
argument of perigee: 70.3797°
revolutions per day: 14.37825742
mean anomaly at epoch: 338.2768°
orbit number at epoch: 17058

The dashed part of the orbit path shows where the satellite is in the earth's shadow,  

DLR